This is the latest recevied weather packets stored in our database for station/object VK2KGV-15. If no packets are shown the sender has not sent any weather packets the latest 10 day(s).
| Time | Temp. | Humidity | Pressure | Rain* | Wind** | Luminosity | Snow |
|---|---|---|---|---|---|---|---|
| 1788494347 | 25.56° C | 28% | 1017.5 hPa | 0 mm | - | - | - |
| 1788493141 | 24.44° C | 33% | 1017.8 hPa | 0 mm | - | - | - |
| 1788491935 | 25° C | 29% | 1017.9 hPa | 0 mm | - | - | - |
| 1788491332 | 25° C | 29% | 1017.9 hPa | 0 mm | - | - | - |
| 1788489522 | 25° C | 31% | 1018.2 hPa | 0 mm | - | - | - |
| 1788488316 | 24.44° C | 31% | 1018.3 hPa | 1.52 mm | - | - | - |
| 1788487110 | 23.89° C | 35% | 1018.5 hPa | 1.52 mm | - | - | - |
| 1788485904 | 23.89° C | 37% | 1019 hPa | 1.52 mm | - | - | - |
| 1788484094 | 22.78° C | 39% | 1019.8 hPa | 1.52 mm | - | - | - |
| 1788482285 | 22.22° C | 38% | 1020 hPa | 1.52 mm | - | - | - |
| 1788481079 | 22.22° C | 40% | 1020.1 hPa | 1.52 mm | - | - | - |
| 1788479270 | 21.11° C | 42% | 1020.3 hPa | 1.52 mm | - | - | - |
| 1788471429 | 11.11° C | 86% | 1021 hPa | 1.52 mm | - | - | - |
| 1788470223 | 8.33° C | 90% | 1021.2 hPa | 1.52 mm | - | - | - |
| 1788469016 | 6.67° C | 92% | 1021.3 hPa | 1.52 mm | - | - | - |
| 1788466604 | 4.44° C | 90% | 1021.2 hPa | 1.52 mm | - | - | - |
| 1788465398 | 4.44° C | 89% | 1021.1 hPa | 1.52 mm | - | - | - |
| 1788464192 | 5° C | 89% | 1021 hPa | 1.52 mm | - | - | - |
| 1788462985 | 5.56° C | 89% | 1020.9 hPa | 1.52 mm | - | - | - |
| 1788461779 | 5.56° C | 89% | 1020.7 hPa | 1.52 mm | - | - | - |
| 1788460573 | 5.56° C | 89% | 1020.5 hPa | 1.52 mm | - | - | - |
| 1788458161 | 6.11° C | 87% | 1020.3 hPa | 1.52 mm | - | - | - |
| 1788455748 | 6.11° C | 86% | 1020.2 hPa | 1.52 mm | - | - | - |
| 1788455145 | 6.67° C | 85% | 1020.2 hPa | 1.52 mm | - | - | - |
| 1788453336 | 6.67° C | 84% | 1020.4 hPa | 1.52 mm | - | - | - |
* Rain since midnight (hover to see other rain measurements)
** Current wind speed in m/s (hover to see current wind gust speed)